SWA2059 KDEN-KSAT

Flight info

Callsign SWA2059
Flight time N/A
Altitude 39000
Route SLEEK2 SLEEK PNH PRTZY POPPO2
Aircraft B38M/M-SDE1FGHILORVWXY/HB1

Departure

Time N/A
Airport Denver International Airport (KDEN)

Arrival

Time 2026-05-06 20:15
Airport San Antonio International Airport (KSAT)
Time Latitude Longitude Altitude Speed Heading
2026-05-06 19:29 32.29864 -99.77468 39039 ft 435 kts 173°
2026-05-06 19:30 32.27062 -99.76111 39037 ft 435 kts 173°
2026-05-06 19:30 32.22396 -99.73851 39027 ft 436 kts 173°
2026-05-06 19:31 32.16776 -99.71133 39018 ft 436 kts 173°
2026-05-06 19:31 32.08313 -99.67046 39007 ft 437 kts 173°
2026-05-06 19:32 32.02680 -99.64331 39010 ft 438 kts 173°
2026-05-06 19:32 31.97060 -99.61625 39017 ft 439 kts 173°
2026-05-06 19:33 31.91391 -99.58900 39030 ft 440 kts 173°
2026-05-06 19:33 31.85715 -99.56175 39036 ft 441 kts 173°
2026-05-06 19:34 31.80031 -99.53450 39043 ft 441 kts 173°
2026-05-06 19:34 31.74382 -99.50744 39038 ft 441 kts 173°
2026-05-06 19:35 31.68687 -99.48021 39029 ft 441 kts 173°
2026-05-06 19:35 31.63024 -99.45316 38955 ft 440 kts 173°
2026-05-06 19:36 31.60180 -99.43962 37965 ft 444 kts 173°
2026-05-06 19:36 31.57293 -99.42586 36730 ft 450 kts 172°
2026-05-06 19:36 31.54413 -99.41209 36234 ft 444 kts 172°
2026-05-06 19:36 31.51545 -99.39844 35517 ft 444 kts 172°
2026-05-06 19:37 31.48667 -99.38476 34704 ft 447 kts 171°
2026-05-06 19:37 31.45779 -99.37102 33957 ft 449 kts 171°
2026-05-06 19:37 31.42883 -99.35725 33258 ft 447 kts 171°
2026-05-06 19:37 31.40051 -99.34379 32738 ft 442 kts 171°
2026-05-06 19:38 31.37205 -99.33028 32219 ft 436 kts 171°
2026-05-06 19:38 31.34426 -99.31710 31691 ft 433 kts 170°
2026-05-06 19:38 31.31639 -99.30392 31147 ft 430 kts 170°
2026-05-06 19:38 31.28866 -99.29092 30543 ft 428 kts 170°
2026-05-06 19:39 31.26103 -99.27795 30021 ft 425 kts 169°
2026-05-06 19:39 31.23369 -99.26514 29423 ft 422 kts 169°
2026-05-06 19:39 31.20646 -99.25238 28873 ft 419 kts 169°
2026-05-06 19:39 31.17948 -99.23974 28348 ft 415 kts 169°
2026-05-06 19:40 31.15313 -99.22740 27839 ft 412 kts 169°
2026-05-06 19:40 31.12666 -99.21502 27322 ft 409 kts 169°
2026-05-06 19:40 31.10031 -99.20270 26805 ft 406 kts 169°
2026-05-06 19:40 31.07409 -99.19045 26288 ft 404 kts 169°
2026-05-06 19:41 31.04807 -99.17830 25779 ft 402 kts 169°
2026-05-06 19:41 31.02217 -99.16621 25274 ft 400 kts 169°
2026-05-06 19:41 30.99630 -99.15414 24767 ft 398 kts 168°
2026-05-06 19:41 30.97060 -99.14216 24274 ft 397 kts 168°
2026-05-06 19:42 30.94499 -99.13022 23786 ft 396 kts 168°
2026-05-06 19:42 30.91972 -99.11846 23253 ft 394 kts 168°
2026-05-06 19:42 30.89430 -99.10660 22698 ft 393 kts 168°
2026-05-06 19:42 30.86894 -99.09463 22121 ft 392 kts 167°
2026-05-06 19:43 30.84367 -99.08273 21700 ft 388 kts 167°
2026-05-06 19:43 30.81877 -99.07100 21270 ft 384 kts 167°
2026-05-06 19:43 30.79439 -99.05953 20835 ft 380 kts 167°
2026-05-06 19:43 30.76992 -99.04802 20409 ft 378 kts 167°
2026-05-06 19:44 30.74563 -99.03661 19986 ft 375 kts 167°
2026-05-06 19:44 30.72156 -99.02530 19569 ft 372 kts 167°
2026-05-06 19:44 30.69752 -99.01402 19153 ft 370 kts 167°
2026-05-06 19:44 30.67377 -99.00287 18747 ft 368 kts 167°
2026-05-06 19:45 30.65007 -98.99176 18348 ft 366 kts 166°
2026-05-06 19:45 30.62650 -98.98071 17888 ft 364 kts 166°
2026-05-06 19:45 30.60313 -98.96977 17460 ft 361 kts 166°
2026-05-06 19:45 30.57993 -98.95890 17053 ft 358 kts 166°
2026-05-06 19:46 30.55693 -98.94815 16653 ft 355 kts 166°
2026-05-06 19:46 30.53439 -98.93761 16259 ft 352 kts 166°
2026-05-06 19:46 30.51180 -98.92705 15874 ft 349 kts 166°
2026-05-06 19:46 30.48932 -98.91654 15502 ft 346 kts 165°
2026-05-06 19:47 30.46713 -98.90618 15153 ft 342 kts 165°
2026-05-06 19:47 30.44515 -98.89591 14782 ft 339 kts 165°
2026-05-06 19:47 30.42325 -98.88569 14401 ft 338 kts 165°
2026-05-06 19:47 30.40147 -98.87554 14035 ft 336 kts 165°
2026-05-06 19:48 30.38002 -98.86554 13653 ft 335 kts 165°
2026-05-06 19:48 30.35841 -98.85547 13234 ft 334 kts 165°
2026-05-06 19:48 30.33695 -98.84548 12846 ft 331 kts 164°
2026-05-06 19:48 30.31558 -98.83553 12472 ft 329 kts 164°
2026-05-06 19:49 30.29442 -98.82569 12109 ft 327 kts 164°
2026-05-06 19:49 30.27335 -98.81589 11729 ft 325 kts 164°
2026-05-06 19:49 30.25235 -98.80613 11362 ft 324 kts 163°
2026-05-06 19:49 30.23162 -98.79650 11004 ft 324 kts 163°
2026-05-06 19:50 30.21075 -98.78681 10739 ft 320 kts 163°
2026-05-06 19:50 30.19033 -98.77732 10580 ft 311 kts 163°
2026-05-06 19:50 30.17044 -98.76810 10439 ft 302 kts 163°
2026-05-06 19:50 30.15118 -98.75917 10301 ft 294 kts 163°
2026-05-06 19:51 30.13246 -98.75048 10162 ft 286 kts 163°
2026-05-06 19:51 30.11412 -98.74207 10053 ft 282 kts 166°
2026-05-06 19:51 30.09519 -98.73903 9917 ft 271 kts 188°
2026-05-06 19:51 30.07628 -98.74011 9827 ft 273 kts 187°
2026-05-06 19:52 30.05728 -98.74108 9702 ft 273 kts 187°
2026-05-06 19:52 30.03855 -98.74214 9582 ft 272 kts 187°
2026-05-06 19:52 30.01961 -98.74327 9484 ft 273 kts 187°
2026-05-06 19:52 30.00061 -98.74444 9383 ft 274 kts 187°
2026-05-06 19:53 29.98162 -98.74562 9283 ft 273 kts 187°
2026-05-06 19:53 29.96255 -98.74682 9182 ft 273 kts 187°
2026-05-06 19:53 29.94354 -98.74802 9083 ft 273 kts 187°
2026-05-06 19:53 29.92455 -98.74921 8923 ft 272 kts 187°
2026-05-06 19:54 29.90568 -98.75040 8773 ft 272 kts 187°
2026-05-06 19:54 29.88703 -98.75158 8652 ft 271 kts 187°
2026-05-06 19:54 29.86821 -98.75277 8526 ft 271 kts 186°
2026-05-06 19:54 29.84934 -98.75397 8408 ft 271 kts 186°
2026-05-06 19:55 29.83051 -98.75515 8276 ft 270 kts 186°
2026-05-06 19:55 29.81164 -98.75634 8145 ft 271 kts 185°
2026-05-06 19:55 29.79280 -98.75752 8033 ft 271 kts 186°
2026-05-06 19:55 29.77402 -98.75871 7895 ft 271 kts 186°
2026-05-06 19:56 29.75544 -98.75987 7794 ft 270 kts 186°
2026-05-06 19:56 29.73661 -98.76101 7661 ft 270 kts 184°
2026-05-06 19:56 29.71807 -98.75734 7492 ft 273 kts 164°
2026-05-06 19:56 29.70007 -98.75010 7399 ft 273 kts 164°
2026-05-06 19:57 29.68210 -98.74301 7293 ft 273 kts 163°
2026-05-06 19:57 29.66437 -98.73593 7185 ft 272 kts 163°
2026-05-06 19:57 29.64670 -98.72883 7066 ft 267 kts 163°
2026-05-06 19:57 29.62925 -98.72196 6893 ft 264 kts 163°
2026-05-06 19:58 29.61184 -98.71516 6681 ft 263 kts 163°
2026-05-06 19:58 29.59459 -98.70843 6483 ft 259 kts 163°
2026-05-06 19:58 29.57783 -98.70186 6355 ft 251 kts 163°
2026-05-06 19:58 29.56136 -98.69542 6193 ft 249 kts 162°
2026-05-06 19:59 29.54501 -98.68903 5945 ft 246 kts 162°
2026-05-06 19:59 29.52922 -98.68285 5685 ft 234 kts 162°
2026-05-06 19:59 29.51403 -98.67692 5438 ft 225 kts 162°
2026-05-06 19:59 29.49951 -98.67126 5145 ft 215 kts 161°
2026-05-06 20:00 29.48607 -98.66602 4929 ft 199 kts 161°
2026-05-06 20:00 29.47330 -98.66104 4720 ft 186 kts 161°
2026-05-06 20:00 29.46189 -98.65517 4557 ft 178 kts 139°
2026-05-06 20:00 29.45420 -98.64449 4536 ft 173 kts 123°
2026-05-06 20:01 29.44739 -98.63300 4481 ft 174 kts 122°
2026-05-06 20:01 29.44068 -98.62134 4228 ft 173 kts 122°
2026-05-06 20:01 29.43399 -98.61017 3936 ft 167 kts 121°
2026-05-06 20:01 29.42791 -98.59923 3587 ft 161 kts 119°
2026-05-06 20:02 29.42278 -98.58800 3248 ft 159 kts 99°
2026-05-06 20:02 29.42414 -98.57594 3132 ft 154 kts 65°
2026-05-06 20:02 29.42957 -98.56515 3085 ft 157 kts 53°
2026-05-06 20:02 29.43676 -98.55593 2913 ft 155 kts 43°
2026-05-06 20:03 29.44470 -98.54759 2742 ft 153 kts 41°
2026-05-06 20:03 29.45259 -98.53969 2580 ft 149 kts 39°
2026-05-06 20:03 29.46038 -98.53200 2370 ft 149 kts 41°
2026-05-06 20:03 29.46824 -98.52423 2199 ft 148 kts 40°
2026-05-06 20:04 29.47602 -98.51654 1984 ft 147 kts 40°
2026-05-06 20:04 29.48372 -98.50890 1821 ft 146 kts 39°
2026-05-06 20:04 29.49146 -98.50129 1673 ft 145 kts 40°
2026-05-06 20:04 29.49906 -98.49377 1450 ft 145 kts 41°
2026-05-06 20:05 29.50684 -98.48608 1281 ft 148 kts 40°
2026-05-06 20:05 29.51470 -98.47835 1054 ft 150 kts 40°
2026-05-06 20:05 29.52266 -98.47051 827 ft 150 kts 41°
2026-05-06 20:05 29.53012 -98.46305 883 ft 151 kts 41°
2026-05-06 20:06 29.53874 -98.45439 1223 ft 175 kts 41°
2026-05-06 20:06 29.54843 -98.44452 1683 ft 197 kts 46°
2026-05-06 20:06 29.55444 -98.43011 1612 ft 206 kts 81°
2026-05-06 20:06 29.55196 -98.41423 1514 ft 209 kts 118°
2026-05-06 20:07 29.54192 -98.40174 1641 ft 220 kts 141°
2026-05-06 20:07 29.52738 -98.39451 1696 ft 236 kts 167°
2026-05-06 20:07 29.51098 -98.39075 1805 ft 243 kts 168°
2026-05-06 20:07 29.49428 -98.38714 1926 ft 246 kts 168°
2026-05-06 20:08 29.47722 -98.38776 1981 ft 253 kts 197°
2026-05-06 20:08 29.46053 -98.39539 2095 ft 264 kts 205°
2026-05-06 20:08 29.44477 -98.40638 2236 ft 262 kts 216°
2026-05-06 20:08 29.43059 -98.41829 2395 ft 241 kts 216°
2026-05-06 20:09 29.41790 -98.42910 2677 ft 208 kts 216°
2026-05-06 20:09 29.40719 -98.43824 2879 ft 183 kts 216°
2026-05-06 20:09 29.39690 -98.44692 2998 ft 183 kts 216°
2026-05-06 20:09 29.38677 -98.45547 2984 ft 183 kts 216°
2026-05-06 20:10 29.37757 -98.46538 2925 ft 180 kts 243°
2026-05-06 20:10 29.37658 -98.47848 2613 ft 161 kts 294°
2026-05-06 20:10 29.38149 -98.48953 2293 ft 153 kts 300°
2026-05-06 20:10 29.38663 -98.50046 2127 ft 158 kts 300°
2026-05-06 20:11 29.39193 -98.51170 2019 ft 161 kts 301°
2026-05-06 20:11 29.39726 -98.52301 1944 ft 161 kts 301°
2026-05-06 20:11 29.40406 -98.53315 1913 ft 159 kts 316°
2026-05-06 20:11 29.41192 -98.54216 1929 ft 160 kts 317°
2026-05-06 20:12 29.42003 -98.55051 1913 ft 156 kts 332°
2026-05-06 20:12 29.43019 -98.55229 1840 ft 146 kts 16°
2026-05-06 20:12 29.43920 -98.54815 2351 ft 142 kts 25°
2026-05-06 20:12 29.44821 -98.54278 2270 ft 147 kts 32°
2026-05-06 20:13 29.45619 -98.53552 2318 ft 147 kts 40°
2026-05-06 20:13 29.46394 -98.52771 2301 ft 147 kts 40°
2026-05-06 20:13 29.47159 -98.51987 2115 ft 147 kts 41°
2026-05-06 20:13 29.47939 -98.51238 1883 ft 144 kts 38°
2026-05-06 20:14 29.48706 -98.50485 1784 ft 146 kts 39°
2026-05-06 20:14 29.49482 -98.49760 1637 ft 144 kts 38°
2026-05-06 20:14 29.50260 -98.49021 1416 ft 146 kts 41°
2026-05-06 20:14 29.51025 -98.48262 1170 ft 148 kts 40°
2026-05-06 20:15 29.51816 -98.47492 964 ft 150 kts 40°
2026-05-06 20:15 29.52605 -98.46715 808 ft 143 kts 41°
2026-05-06 20:15 29.53263 -98.46065 801 ft 94 kts 40°
2026-05-06 20:15 29.53591 -98.45742 800 ft 35 kts 40°
2026-05-06 20:16 29.53715 -98.45708 800 ft 18 kts 312°
2026-05-06 20:16 29.53718 -98.45807 800 ft 12 kts 222°
2026-05-06 20:16 29.53650 -98.45873 800 ft 14 kts 220°
2026-05-06 20:16 29.53568 -98.45954 800 ft 17 kts 221°
2026-05-06 20:17 29.53474 -98.46048 800 ft 19 kts 221°
2026-05-06 20:17 29.53339 -98.46181 800 ft 33 kts 220°
2026-05-06 20:17 29.53155 -98.46362 800 ft 36 kts 220°
2026-05-06 20:17 29.52961 -98.46553 801 ft 37 kts 220°
2026-05-06 20:18 29.52789 -98.46720 801 ft 17 kts 219°
2026-05-06 20:18 29.52712 -98.46825 801 ft 17 kts 276°
2026-05-06 20:18 29.52781 -98.46923 801 ft 15 kts 313°
2026-05-06 20:18 29.52848 -98.47009 801 ft 14 kts 304°
2026-05-06 20:19 29.52824 -98.47081 801 ft 11 kts 218°
2026-05-06 20:19 29.52761 -98.47108 801 ft 7 kts 157°
2026-05-06 20:19 29.52743 -98.47096 801 ft 0 kts 148°
2026-05-06 20:19 29.52739 -98.47093 801 ft 1 kts 147°
2026-05-06 20:20 29.52736 -98.47091 801 ft 0 kts 147°